Location: Sobotiste
(48.7170°N, 17.4000°E)
Time: 08:34:46
(UTC+02:00)

YUBILEINY - Pass Details

Date: 18 March 2026
Orbit: 1477 x 1509 km, 82.5° (Epoch: 17 April)

Event Time Altitude Azimuth Distance (km) Brightness Sun altitude
Rises 03:22:33 0° 348° (NNW) 4,621 ? -25.4°
Reaches altitude 10° 03:25:28 10° 345° (NNW) 3,634 ? -24.9°
Maximum altitude 03:34:01 63° 268° (W) 1,623 ? -23.7°
Enters shadow 03:42:05 12° 190° (S) 3,462 ? -22.5°
